Wind_Speed
107 106 106 106 106 106 106 106 106 106 106 107 106 106 106 105 104 103 103 102 101 100 99 99 98 97 96 96 95 94 94 93 93 92 91 91 90 90 90 89 89 88 88 88 89 89 89 89 89 89 90 90 90 90 90 91 91 91 91 91 92 92 92 92 92 92 92 91 91 90 89 88 88 87 87 87 87 87 87 86 86 85 84 83 82 82
107 107 107 106 106 106 106 106 106 106 107 107 107 106 106 105 105 104 104 103 102 101 100 100 99 98 98 97 96 95 95 94 94 93 93 92 91 91 90 90 89 89 89 89 89 89 89 89 90 90 90 90 90 90 91 91 91 91 92 92 92 92 92 92 92 92 92 91 90 89 89 88 88 87 87 87 87 87 87 87 86 86 85 84 83 82
107 107 107 106 106 106 106 106 106 106 106 107 106 106 106 105 105 105 104 104 102 101 101 100 100 99 99 98 97 96 96 95 94 94 93 93 92 92 91 91 90 90 89 89 89 90 90 90 90 90 90 90 90 91 91 91 91 92 92 92 92 92 92 92 92 92 91 91 90 89 88 88 87 87 87 87 86 86 87 87 86 86 85 84 83 82
107 107 107 106 106 106 106 106 106 106 106 106 106 106 105 105 105 105 105 104 103 102 101 101 100 100 99 99 98 97 96 96 95 94 94 93 93 92 92 91 91 90 90 90 90 90 90 90 90 91 91 91 91 91 91 91 91 91 92 92 92 92 92 92 92 91 91 90 89 88 88 87 87 87 87 86 86 86 86 87 87 86 86 85 84 83
107 107 106 106 106 106 106 105 105 105 105 105 105 105 105 105 105 105 104 104 103 102 102 101 101 100 100 99 98 98 97 96 95 95 94 93 93 92 92 92 91 91 90 90 90 91 91 91 91 91 91 91 91 91 91 91 91 91 91 91 91 91 91 91 91 91 90 89 89 88 87 87 87 87 87 86 86 86 86 87 87 86 86 85 84 83
107 107 106 105 105 105 105 105 105 104 104 104 104 105 105 105 105 105 104 104 103 103 102 101 101 100 100 99 99 98 98 97 96 95 94 94 93 93 92 92 92 91 91 91 91 91 91 91 91 91 91 91 91 91 91 91 91 91 91 91 91 91 91 91 91 90 90 89 88 87 87 87 87 87 86 86 86 86 86 86 87 86 86 85 84 83
108 107 106 105 105 105 105 104 104 104 103 103 103 104 104 104 105 105 104 104 103 102 102 101 101 100 100 99 99 98 98 97 96 95 94 94 93 93 92 92 92 92 91 91 91 91 92 92 92 92 91 91 91 91 91 90 90 91 91 91 91 91 91 90 90 90 89 88 87 87 86 86 86 86 86 86 86 86 86 86 86 86 86 85 85 84
108 107 106 106 105 105 104 104 103 103 102 102 102 102 103 104 104 104 104 103 103 102 101 101 100 100 99 99 98 98 97 97 96 95 94 94 93 93 92 92 92 92 91 91 92 92 92 92 92 92 91 91 91 91 90 90 90 90 90 90 90 90 90 90 90 89 89 88 87 87 86 86 86 86 86 86 85 85 86 86 86 86 86 85 85 84
108 107 106 105 105 105 104 104 103 102 101 101 101 101 102 103 104 104 103 103 102 101 101 100 100 99 99 98 98 97 97 96 96 95 94 94 93 93 92 92 92 92 92 92 92 92 92 92 92 92 92 91 91 91 90 90 90 90 90 90 90 90 90 90 89 89 88 88 87 87 86 86 86 86 86 85 85 85 85 85 85 85 85 85 84 84
107 107 106 105 104 104 104 104 103 101 100 100 100 100 101 102 103 103 103 102 102 101 100 99 99 98 98 97 97 97 96 96 95 94 94 93 93 93 92 92 92 92 92 92 92 92 92 92 92 92 92 91 91 91 91 90 90 90 90 90 90 90 89 89 89 89 88 88 87 87 86 86 86 86 85 85 84 84 85 85 85 85 85 84 84 83
106 106 105 105 104 103 103 103 102 101 100 99 99 99 100 101 102 102 102 101 101 100 99 99 98 97 96 96 96 96 95 95 94 94 94 93 93 93 92 92 92 92 92 92 92 92 92 92 92 92 92 92 91 91 91 91 91 90 90 90 90 89 89 89 89 88 88 87 87 87 86 86 86 85 85 84 84 84 84 84 84 84 84 84 83 83
105 104 104 104 103 103 102 102 101 100 99 99 99 99 100 101 101 101 100 100 100 99 99 98 97 96 95 95 95 95 94 94 94 94 93 93 92 92 92 92 92 92 92 92 92 92 92 92 92 92 92 92 92 91 91 91 91 90 90 90 89 89 89 88 88 88 87 87 87 86 86 85 85 84 84 83 83 83 83 83 83 83 83 83 83 82
103 103 103 102 102 101 101 101 100 99 99 98 98 99 99 100 100 99 99 98 98 98 98 97 96 95 94 94 94 94 94 93 93 93 92 92 92 92 92 92 92 92 92 92 92 92 92 92 92 92 92 92 92 91 91 91 90 90 90 89 89 88 88 88 88 87 87 87 86 86 85 85 84 83 83 83 82 82 82 82 82 82 82 82 82 82
101 101 101 101 100 100 100 99 99 99 98 98 97 98 98 99 98 98 97 97 97 97 96 96 95 94 94 93 93 93 93 92 92 92 92 92 92 92 92 92 92 91 91 91 91 92 92 92 92 92 92 92 92 91 91 90 90 89 89 89 88 88 88 87 87 87 87 86 86 85 84 84 83 83 82 82 82 81 81 81 81 82 81 81 81 81
99 99 99 99 98 98 98 98 98 97 97 97 97 97 97 97 97 97 96 96 96 96 95 95 94 94 93 93 92 92 92 92 92 91 91 91 91 91 91 91 91 91 91 91 91 92 92 92 92 92 92 92 92 91 90 90 89 89 88 88 88 87 87 87 87 86 86 85 85 84 83 83 82 82 81 81 81 81 80 81 81 81 81 80 80 80
96 96 96 96 96 96 96 96 96 96 96 96 96 96 96 96 96 95 94 94 94 94 94 94 93 93 93 92 92 91 91 91 91 91 91 91 91 91 91 91 91 91 91 91 91 92 92 92 92 92 92 92 91 91 90 89 89 88 88 87 87 87 87 86 86 86 85 85 84 83 82 82 81 81 80 80 80 80 80 80 80 80 80 80 79 79
93 93 94 94 94 94 94 94 94 94 95 95 95 95 95 95 94 94 93 93 93 93 93 93 92 92 92 92 91 91 90 90 90 90 90 90 90 90 90 90 90 90 90 91 91 92 92 92 92 92 92 91 91 90 89 89 88 87 87 87 86 86 86 86 86 85 84 83 83 82 81 81 80 80 79 79 79 78 79 79 79 79 79 79 79 79
90 91 91 91 92 92 92 92 92 93 93 93 93 93 93 93 92 92 92 92 92 92 92 92 91 91 91 91 91 90 89 89 89 89 89 90 90 90 90 90 90 90 90 91 91 91 92 92 92 91 91 90 90 89 88 88 87 87 86 86 86 86 85 85 85 84 83 82 82 81 80 80 79 79 78 78 78 77 78 78 78 78 78 78 78 78
87 88 88 89 89 90 90 90 90 91 91 92 92 92 92 91 91 91 91 91 91 91 91 90 90 90 91 91 91 90 89 88 88 89 89 89 90 90 89 89 89 90 90 90 91 91 91 91 91 90 90 89 89 88 88 87 86 86 85 85 85 85 85 84 84 83 82 81 81 80 79 79 78 77 77 77 77 77 77 77 77 77 77 77 77 77
85 85 86 86 87 87 88 88 88 89 89 90 90 90 90 90 90 89 90 90 90 89 89 89 90 90 90 90 90 89 88 88 88 88 88 89 90 89 89 89 89 89 90 90 90 90 90 90 90 89 89 89 88 87 87 86 85 85 85 84 84 84 84 83 83 82 81 80 79 79 78 77 77 76 76 76 76 76 76 76 76 76 76 76 76 77
82 83 83 84 84 85 86 86 87 87 87 88 88 88 88 88 88 88 88 88 88 88 88 88 89 89 89 89 89 89 88 87 87 88 88 88 89 89 89 88 88 89 89 89 89 89 89 89 89 88 88 87 87 86 86 85 85 84 84 84 83 83 83 82 81 81 80 79 78 77 77 76 76 75 75 75 75 75 75 75 75 75 75 76 76 76
79 80 80 81 82 83 83 84 84 85 85 86 86 87 87 87 87 87 87 86 86 87 87 87 87 87 88 88 88 88 87 87 87 87 87 88 88 89 88 88 88 88 89 89 89 88 88 88 87 87 87 86 86 85 85 84 84 83 83 83 82 82 82 81 80 79 79 78 77 76 76 75 74 74 74 74 74 74 74 74 74 74 75 75 75 75
76 77 78 79 79 80 81 82 82 83 83 83 84 85 85 85 85 85 85 85 85 85 85 86 86 86 86 87 87 87 87 87 87 87 87 87 88 88 87 87 87 87 88 88 87 87 87 86 86 86 86 85 85 84 84 83 83 82 82 82 82 81 81 80 79 78 77 76 76 75 74 74 74 73 73 73 73 73 73 73 73 73 74 74 74 74
74 75 75 76 77 78 79 79 80 81 81 82 82 83 83 83 83 83 82 82 83 83 84 84 85 85 85 86 86 86 86 86 85 86 86 87 87 87 86 86 86 86 87 86 86 86 86 85 85 85 84 84 84 83 83 82 82 82 81 81 81 80 80 79 78 77 76 75 74 74 73 73 73 72 72 72 72 72 72 72 72 73 73 73 73 73
71 72 73 74 75 76 76 77 78 78 79 80 81 81 81 82 81 81 81 81 81 82 82 83 84 84 85 85 85 85 85 85 84 84 85 85 86 86 85 85 85 85 85 85 85 84 84 84 84 83 83 83 83 82 82 81 81 81 81 80 80 79 78 77 76 75 74 74 73 73 72 72 72 72 71 71 71 71 71 71 71 72 72 72 72 72
68 70 71 72 73 74 74 75 76 76 77 78 79 79 80 80 80 79 79 79 80 80 81 82 82 83 83 83 84 84 84 84 83 83 83 84 84 84 84 83 84 84 84 84 83 83 83 83 82 82 82 82 82 81 81 81 80 80 80 79 78 77 76 75 74 74 73 73 72 72 72 71 71 71 71 70 70 70 70 70 71 71 71 71 71 72
66 67 68 70 71 72 73 73 74 75 75 76 77 78 78 78 78 78 78 78 78 79 80 80 81 81 81 82 83 83 83 82 82 82 82 82 83 83 83 82 82 82 82 82 82 81 81 81 81 81 81 81 81 80 80 80 79 79 78 77 77 76 75 74 73 72 72 72 72 71 71 71 70 70 70 70 69 69 69 69 70 70 70 70 70 71
64 65 66 68 69 70 71 72 73 73 74 74 75 76 76 76 77 77 77 77 77 77 78 78 79 79 80 80 81 81 81 81 80 80 80 80 81 81 81 81 81 81 81 80 80 80 79 80 80 80 80 80 80 79 79 78 78 77 76 75 75 74 73 72 72 72 71 71 71 71 70 70 70 69 69 69 69 68 69 69 69 69 69 69 69 70
63 64 65 66 67 68 70 71 72 72 73 73 74 74 74 75 75 76 76 76 76 76 76 76 77 77 78 79 79 79 79 79 79 79 78 78 79 79 79 79 79 79 79 79 78 78 78 78 79 79 79 79 79 78 78 77 76 75 74 73 73 72 72 72 71 71 71 71 70 70 70 69 69 68 68 68 68 68 68 68 68 68 68 68 69 70
62 62 63 64 66 67 68 69 70 71 72 72 72 73 73 73 74 74 74 74 74 74 74 74 75 75 76 76 77 77 78 78 77 77 76 77 77 77 77 77 77 77 77 77 77 77 77 77 78 78 78 78 78 77 76 75 74 73 72 72 71 71 71 71 70 70 70 70 70 69 69 68 68 68 67 67 67 67 67 67 67 67 67 68 68 69
60 61 62 63 64 65 66 67 68 69 70 71 71 72 72 72 72 73 73 73 73 73 73 73 73 73 73 74 74 75 76 76 76 75 74 75 75 75 75 75 75 75 75 74 75 76 76 77 77 77 77 77 76 75 74 73 72 71 71 70 70 70 70 70 70 70 69 69 69 69 68 68 67 66 66 66 66 66 66 66 66 67 67 67 68 68
59 60 61 62 62 63 64 65 66 67 68 69 70 70 71 71 71 71 71 71 71 71 71 71 71 71 71 71 72 73 74 74 74 73 73 73 73 73 73 73 73 73 73 73 73 74 75 76 76 76 75 75 74 73 72 71 70 70 69 69 69 69 69 69 69 69 69 68 68 68 67 67 66 65 65 64 65 65 65 65 66 66 66 67 67 68
58 58 59 60 61 62 62 63 64 65 66 67 68 69 69 70 70 70 70 70 70 70 70 69 69 69 69 69 70 70 71 72 72 71 71 71 71 71 71 71 72 72 72 72 72 73 74 74 74 74 74 73 72 71 70 69 69 68 68 68 68 69 69 69 69 68 68 68 67 67 66 65 64 64 64 63 64 64 64 65 65 66 66 66 67 67
56 57 58 58 59 60 61 61 62 63 64 65 65 66 67 68 68 69 69 69 69 69 69 68 68 68 67 67 67 68 68 69 70 69 69 69 69 69 69 70 70 71 71 71 71 72 72 72 72 72 72 71 70 69 68 68 67 67 67 67 68 68 68 68 68 68 67 67 66 66 65 64 63 63 62 63 63 63 64 64 65 66 66 66 66 66
55 56 57 57 58 58 59 60 60 61 62 62 63 64 65 66 66 67 67 68 68 68 68 67 67 66 66 66 65 66 66 67 67 68 67 67 68 68 68 69 69 70 70 70 70 70 70 70 70 70 69 69 68 68 67 67 66 66 66 66 67 67 68 68 68 67 67 66 65 64 63 63 62 62 61 62 62 62 63 64 65 65 66 66 66 65
55 55 56 56 56 57 57 58 59 59 60 61 61 62 63 64 64 65 66 66 66 66 67 66 66 66 65 64 64 64 65 65 65 66 66 66 67 67 68 68 68 68 69 69 69 69 68 68 68 67 67 67 67 67 66 65 65 65 65 66 66 67 67 67 67 67 66 65 64 63 62 61 61 60 60 61 61 62 62 63 64 65 65 65 65 64
54 55 55 55 55 56 56 57 57 58 58 59 59 60 61 62 62 63 64 64 65 65 65 65 65 65 64 64 63 63 63 64 64 64 65 65 66 66 67 67 67 67 68 68 67 67 66 66 65 65 65 65 65 65 65 64 64 64 65 65 66 66 67 67 66 66 65 64 63 62 61 60 60 59 59 60 60 61 62 63 64 64 65 64 64 63
54 54 55 55 55 55 55 55 56 56 57 57 58 59 59 60 61 62 62 63 63 63 64 64 64 64 64 63 62 62 62 62 63 63 64 64 65 65 66 66 66 66 66 66 66 65 64 64 63 63 63 63 63 63 63 63 63 64 64 65 65 66 66 66 65 64 63 62 61 60 60 59 59 59 59 59 59 60 61 62 63 64 64 64 63 62
53 54 54 54 54 54 54 54 54 55 55 56 57 58 58 59 60 60 61 61 61 62 62 62 63 63 63 63 62 61 61 61 62 62 63 63 64 64 65 65 66 65 65 65 64 63 62 62 61 61 61 61 62 62 62 62 63 64 64 65 65 65 66 65 64 63 62 61 60 59 59 58 58 58 58 58 59 60 61 62 63 63 63 63 62 61
53 53 54 54 54 53 53 54 54 54 55 55 56 57 57 58 58 59 59 59 60 60 60 61 61 61 62 62 61 61 61 61 61 62 62 63 63 64 64 64 64 64 64 63 62 61 60 60 59 59 59 60 60 60 61 62 63 63 64 65 65 65 65 64 63 62 61 60 59 58 58 57 57 57 57 57 58 59 60 61 62 63 62 62 61 60
52 53 53 53 53 53 53 53 54 54 54 55 55 56 56 57 57 57 58 58 58 59 59 59 60 60 60 61 61 61 60 61 61 61 61 62 62 63 63 63 63 62 62 61 60 59 59 58 58 58 58 58 59 59 60 62 62 63 64 64 65 64 64 63 62 61 60 59 58 58 57 57 56 56 56 56 58 59 60 61 62 62 61 61 60 59
52 52 52 52 52 52 52 53 53 54 54 54 55 55 55 56 56 56 56 57 57 57 57 58 58 58 59 59 60 60 60 60 60 60 61 61 61 62 62 61 61 61 60 59 58 58 57 56 56 56 56 57 57 59 60 61 62 63 64 64 64 63 62 62 61 60 59 58 57 57 56 56 55 55 55 56 57 58 60 60 61 61 61 60 59 58
52 52 52 52 52 52 52 52 52 53 53 54 54 55 55 55 55 55 55 55 55 56 56 56 56 57 57 58 58 59 59 59 59 60 60 60 60 60 60 60 59 59 58 57 57 56 55 55 55 55 55 56 57 58 60 61 62 63 63 63 62 62 61 61 60 59 58 58 57 56 55 54 54 54 54 55 57 58 59 60 60 60 60 59 58 57
51 51 52 52 52 52 51 51 51 52 52 53 54 54 54 54 54 53 54 54 54 54 54 54 55 55 56 56 57 58 58 58 58 58 59 59 59 59 58 58 57 57 56 55 55 55 54 54 54 54 55 55 56 58 59 61 62 63 63 62 61 60 60 59 59 58 58 57 56 55 54 53 53 53 54 55 56 58 59 60 60 59 59 58 57 56
49 50 51 52 52 52 52 51 51 51 51 52 53 53 53 53 52 52 52 52 52 53 53 53 53 54 54 55 56 56 56 57 57 57 57 57 57 57 57 56 56 55 54 54 53 53 53 53 53 54 54 55 56 58 59 61 62 62 61 60 59 58 58 58 58 58 58 57 56 54 53 52 52 52 53 54 56 57 58 59 59 59 58 57 56 56
48 49 50 51 52 52 52 51 51 51 51 51 52 52 52 52 52 51 51 51 51 52 52 51 52 53 53 54 54 55 55 55 55 56 56 56 56 56 55 55 54 53 53 52 52 52 52 52 53 53 54 55 56 58 59 60 61 61 60 59 58 57 57 57 57 57 57 56 55 53 52 52 51 52 53 54 55 57 58 58 59 58 57 56 55 55
48 49 50 51 51 52 52 51 51 51 51 51 51 51 51 51 51 51 51 51 51 51 51 51 51 52 52 53 53 53 54 54 54 54 54 54 54 54 53 53 52 52 51 51 51 51 52 52 53 53 54 55 57 58 59 59 59 59 58 57 56 56 56 57 57 57 56 55 54 53 52 51 51 51 52 53 55 56 57 58 58 57 57 56 55 54
48 49 50 50 51 51 51 51 51 50 50 50 50 50 50 50 50 50 50 50 50 50 50 51 51 51 52 52 52 52 53 53 53 53 53 53 52 52 52 51 51 51 50 50 50 51 51 52 53 53 54 55 57 58 58 58 58 57 56 56 56 56 56 56 56 56 55 53 52 52 51 51 51 51 52 53 54 55 56 57 57 57 56 55 54 53
48 49 50 50 51 51 51 51 51 50 50 50 50 50 50 50 50 50 50 50 50 50 50 50 51 51 51 51 52 52 52 52 52 52 52 51 51 51 50 50 49 49 49 50 50 50 51 52 53 54 54 55 56 57 57 57 56 56 55 55 55 56 56 56 55 54 53 52 51 50 50 50 50 51 51 52 53 54 56 56 57 56 56 54 53 51
47 48 49 50 51 51 51 51 50 50 50 49 49 49 49 49 50 50 50 50 50 50 50 50 50 51 51 51 51 51 51 51 51 51 50 50 50 49 49 49 49 49 49 49 49 50 51 52 53 53 54 55 56 56 56 55 55 54 54 55 55 55 55 55 54 53 51 50 50 49 49 49 50 50 51 52 52 53 55 55 56 56 55 53 52 50
47 47 48 49 50 50 50 50 50 49 49 49 49 49 49 49 49 49 49 49 49 49 49 50 50 50 51 51 51 51 50 50 50 50 50 49 49 48 48 48 48 48 48 49 49 50 51 51 52 53 54 54 54 54 54 54 54 54 54 55 55 55 54 53 52 51 50 49 48 48 48 49 49 50 50 51 52 52 53 54 55 55 54 53 51 48
Wind_Direction
272 272 272 272 272 272 272 272 272 273 273 273 273 274 274 275 275 275 275 275 275 275 275 276 276 276 276 276 276 276 276 277 277 277 277 276 276 276 276 276 276 275 275 275 274 274 274 274 273 273 273 273 273 273 272 272 272 272 272 272 272 272 272 272 272 272 272 272 272 272 273 272 272 272 272 272 272 272 272 272 271 271 270 270 269 268
272 272 272 271 271 271 271 271 272 272 272 272 273 273 274 274 274 274 274 274 275 275 275 275 275 275 276 276 276 276 276 276 276 276 276 276 276 276 276 275 275 275 275 274 274 274 274 273 273 273 273 273 272 272 272 272 272 272 272 272 272 272 272 272 272 272 272 272 272 272 272 272 272 272 272 272 272 272 272 271 271 271 270 270 269 268
271 271 271 271 271 271 271 271 271 271 271 272 272 272 273 273 273 273 274 274 274 274 274 274 275 275 275 275 275 275 275 275 275 275 275 275 275 275 275 275 275 275 274 274 274 274 273 273 273 273 272 272 272 272 272 272 272 272 272 272 272 272 272 272 272 272 272 272 272 272 272 272 272 272 272 272 272 272 271 271 271 271 270 270 269 268
271 271 271 270 270 270 270 270 270 270 271 271 271 272 272 272 272 272 273 273 273 274 274 274 274 274 274 274 275 275 275 275 275 275 275 275 275 275 275 275 274 274 274 274 274 273 273 273 273 272 272 272 272 272 272 272 272 272 272 272 272 272 272 272 272 272 272 272 272 272 272 272 272 272 272 272 272 271 271 271 271 271 270 270 269 268
271 271 270 270 270 270 270 270 270 270 270 270 270 271 271 271 271 272 272 272 272 273 273 273 273 273 274 274 274 274 274 274 274 274 274 274 274 274 274 274 274 274 274 273 273 273 273 273 272 272 272 272 272 272 271 271 271 271 271 272 272 272 272 272 272 272 272 272 272 272 272 272 272 272 272 271 271 271 271 271 271 270 270 269 269 268
271 271 271 270 270 270 270 270 270 269 269 270 270 270 270 270 271 271 271 271 271 272 272 272 272 273 273 273 274 274 274 274 274 274 274 274 274 274 274 274 273 273 273 273 273 273 272 272 272 272 272 272 272 272 271 271 271 271 271 272 272 272 272 272 272 272 272 272 272 272 272 272 272 272 271 271 271 271 271 271 270 270 270 269 268 268
272 271 271 271 270 270 270 270 269 269 269 269 269 269 270 270 270 270 270 270 271 271 271 271 272 272 272 273 273 273 273 273 274 273 273 273 273 273 273 273 273 273 273 273 272 272 272 272 272 272 272 272 272 272 272 272 272 272 272 272 272 272 272 272 272 272 272 272 272 272 272 272 272 271 271 271 271 271 271 270 270 270 269 269 268 267
272 271 271 271 270 270 270 269 269 269 269 269 269 269 269 269 269 269 270 270 270 270 270 271 271 271 272 272 272 273 273 273 273 273 273 273 273 273 273 272 272 272 272 272 272 272 272 272 272 272 272 272 272 272 272 272 272 272 272 272 272 272 272 272 272 272 272 272 272 272 272 272 271 271 271 271 271 271 270 270 270 269 269 269 268 267
271 271 271 271 270 270 270 270 269 269 268 268 268 268 268 269 269 269 269 269 269 269 269 270 270 271 271 271 272 272 272 272 273 273 273 273 272 272 272 272 272 272 272 272 272 272 272 272 272 272 272 273 272 272 272 272 272 272 272 272 272 272 272 272 272 272 272 272 272 272 272 271 271 271 271 271 271 270 270 270 269 269 269 268 268 267
271 270 270 270 270 270 270 270 269 269 268 268 268 268 268 268 268 268 268 268 269 269 269 269 269 270 270 271 271 271 272 272 272 272 272 272 272 272 272 272 272 272 272 272 272 272 272 272 273 273 273 273 273 273 273 272 272 272 272 272 272 272 272 272 273 273 272 272 272 272 272 271 271 271 271 271 270 270 270 269 269 269 268 268 268 267
270 270 270 270 269 269 269 269 269 269 268 268 268 268 267 267 267 267 268 268 268 268 269 269 269 269 270 270 270 271 271 271 271 271 271 271 271 271 271 271 271 271 272 272 272 272 272 273 273 273 273 273 273 273 273 273 272 272 272 272 272 273 273 273 273 273 272 272 272 272 271 271 271 271 271 270 270 270 269 269 269 268 268 268 268 267
269 269 269 269 269 269 269 269 268 268 268 268 268 267 267 266 266 267 267 267 268 268 268 268 269 269 269 269 270 270 270 270 270 271 271 271 271 271 271 271 271 271 271 272 272 272 272 273 273 273 273 273 273 273 273 272 272 272 272 273 273 273 273 273 273 272 272 272 272 271 271 271 271 271 270 270 270 270 269 269 269 268 268 268 268 267
269 269 268 268 268 268 268 268 268 268 268 267 267 267 266 266 266 266 267 267 267 267 268 268 268 268 268 269 269 269 269 269 270 270 270 270 270 270 270 271 271 271 271 272 272 272 272 273 273 273 273 273 272 272 272 272 272 272 273 273 273 273 273 273 272 272 272 272 271 271 271 271 271 271 270 270 270 270 269 269 269 268 268 268 268 267
268 268 268 268 268 268 267 267 267 267 267 267 266 266 266 266 266 266 266 266 267 267 267 267 268 268 268 268 268 268 269 269 269 269 269 270 270 270 270 270 271 271 271 272 272 272 272 272 272 272 272 272 272 272 272 272 272 272 273 273 273 273 273 272 272 272 272 271 271 271 271 271 271 270 270 270 270 270 269 269 269 269 268 268 268 267
268 267 267 267 267 267 267 267 267 266 266 266 266 265 265 265 265 265 266 266 266 266 267 267 267 267 267 267 268 268 268 268 268 269 269 269 269 269 270 270 270 271 271 271 271 272 272 272 272 272 272 272 272 272 272 272 272 273 273 273 273 273 273 272 272 272 272 271 271 271 271 271 271 270 270 270 270 269 269 269 269 269 268 268 268 267
267 267 267 266 266 266 266 266 266 266 265 265 265 265 265 265 265 265 265 265 265 266 266 266 266 267 267 267 267 267 267 268 268 268 269 269 269 269 269 270 270 270 271 271 271 271 271 271 271 271 271 272 272 272 272 272 272 272 273 273 273 273 272 272 272 272 271 271 271 271 271 271 270 270 270 270 270 270 269 269 269 269 269 268 268 267
267 266 266 266 266 266 265 265 265 265 265 265 264 264 264 264 264 264 265 265 265 265 265 265 266 266 266 266 267 267 267 267 268 268 268 269 269 269 269 269 270 270 270 270 270 270 271 271 271 271 271 271 271 272 272 272 272 272 272 273 272 272 272 272 272 271 271 271 271 271 271 270 270 270 270 270 270 270 269 269 269 269 268 268 268 267
266 266 266 265 265 265 265 265 264 264 264 264 264 264 264 264 264 264 264 264 264 264 265 265 265 265 266 266 266 266 266 267 267 268 268 268 268 269 269 269 269 269 270 270 270 270 270 270 270 271 271 271 271 272 272 272 272 272 272 272 272 272 272 272 271 271 271 271 271 271 270 270 270 270 270 270 270 270 269 269 269 269 268 268 267 267
266 265 265 265 265 264 264 264 264 264 264 263 263 263 263 264 264 264 264 264 264 264 264 265 265 265 265 266 266 266 266 266 267 267 267 268 268 268 268 268 269 269 269 269 269 270 270 270 270 271 271 271 271 271 272 272 272 272 272 272 272 272 272 271 271 271 271 271 271 270 270 270 270 270 270 270 270 270 269 269 269 268 268 268 267 267
265 265 265 264 264 264 264 264 263 263 263 263 263 263 263 263 263 263 263 264 264 264 264 264 265 265 265 265 266 266 266 266 266 267 267 267 267 268 268 268 268 268 269 269 269 269 269 270 270 270 271 271 271 271 272 272 272 272 272 272 272 272 272 271 271 271 271 271 271 270 270 270 270 270 270 270 270 270 269 269 269 268 268 267 267 267
265 265 265 264 264 264 264 263 263 263 263 263 263 263 263 263 263 263 263 263 264 264 264 264 264 265 265 265 266 266 266 266 266 266 266 267 267 267 268 268 268 268 268 269 269 269 269 270 270 270 271 271 271 271 272 272 272 272 272 272 272 272 271 271 271 271 271 271 271 271 271 270 270 270 270 270 270 269 269 269 268 268 268 267 267 267
265 265 264 264 264 264 264 263 263 263 263 263 263 263 263 263 263 263 263 263 264 264 264 264 264 265 265 265 266 266 266 266 266 266 266 267 267 267 267 268 268 268 268 269 269 269 269 270 270 270 271 271 271 271 272 272 272 272 272 272 271 271 271 271 271 271 271 271 271 271 271 271 271 270 270 270 270 269 269 268 268 268 268 267 267 267
265 265 264 264 264 264 264 264 263 263 263 263 263 263 263 263 263 263 263 264 264 264 264 264 264 265 265 265 265 265 266 266 266 266 266 266 267 267 267 268 268 268 268 269 269 269 270 270 270 270 271 271 271 271 271 272 272 272 271 271 271 271 271 271 271 271 271 271 271 271 271 271 271 270 270 270 269 269 269 268 268 268 268 268 268 268
265 265 265 264 264 264 264 263 264 264 264 263 263 263 263 263 263 263 263 264 264 264 264 264 264 264 264 264 265 265 265 265 265 266 266 266 267 267 267 268 268 268 268 269 269 269 270 270 270 271 271 271 271 271 271 271 271 271 271 271 271 271 271 271 271 271 271 271 271 271 271 271 271 270 270 269 269 269 268 268 268 268 268 268 268 268
265 265 265 265 264 264 264 264 263 264 263 264 264 264 264 264 263 263 263 263 263 263 263 263 264 264 264 264 264 265 265 265 265 266 266 266 267 267 268 268 268 268 268 269 269 269 270 270 270 271 271 271 271 271 271 271 271 271 271 271 271 271 271 271 271 272 272 272 272 271 271 271 270 270 270 269 269 269 268 268 268 268 268 268 268 268
265 265 265 265 265 264 264 263 263 263 263 263 263 263 264 264 264 263 263 263 263 263 263 263 263 263 264 264 264 265 265 265 265 265 266 266 267 267 268 268 268 268 269 269 269 270 270 270 270 271 271 271 271 270 270 270 270 270 270 271 271 271 271 272 272 272 272 272 271 271 271 271 270 270 270 269 269 269 269 268 268 268 269 269 269 269
265 265 265 264 265 264 264 264 263 263 263 263 263 263 264 264 264 264 263 263 263 263 263 263 263 263 264 264 264 265 265 265 265 266 266 266 267 267 268 268 268 268 269 269 269 270 270 270 270 270 270 270 270 270 270 270 270 270 270 271 271 271 272 272 272 272 272 272 271 271 271 270 270 270 269 269 269 269 269 269 269 269 269 269 269 269
265 264 264 264 264 264 264 264 264 264 263 263 263 263 263 263 263 263 263 263 263 263 263 263 263 263 264 264 264 265 265 265 266 266 266 266 267 267 267 268 268 268 269 269 269 270 270 270 270 270 270 270 269 269 269 269 270 270 271 271 272 272 272 272 272 272 272 271 271 271 270 270 270 270 269 269 269 269 270 270 270 270 270 270 270 270
265 264 264 263 263 264 264 264 264 264 264 264 264 263 263 263 263 263 263 263 263 263 263 263 263 263 264 264 265 265 265 266 266 266 266 266 267 267 268 268 268 269 269 269 270 270 269 269 269 269 269 269 269 269 269 270 270 271 271 272 272 272 272 272 272 271 271 271 271 270 270 270 270 270 270 270 270 270 270 270 270 270 270 270 270 270
265 264 264 263 263 263 263 264 264 264 265 265 264 264 264 264 264 264 264 264 263 263 263 263 263 263 264 264 265 265 266 266 266 266 266 267 267 267 268 268 268 268 269 269 269 269 269 269 268 268 268 268 269 269 269 270 271 271 272 272 272 272 272 271 271 271 271 270 270 270 270 270 270 270 270 270 271 271 271 271 271 271 271 270 270 270
265 264 264 263 263 263 263 263 264 264 265 265 265 265 265 265 265 264 264 264 264 264 264 264 264 264 264 264 265 265 266 266 266 266 267 267 267 267 267 268 268 268 268 268 268 268 268 268 268 268 268 268 269 269 270 271 271 271 272 272 272 271 271 271 271 270 270 270 270 270 270 270 270 271 271 271 271 271 271 271 271 271 271 271 271 271
265 264 264 264 264 263 263 263 264 264 265 265 266 266 266 266 266 265 265 265 265 265 265 264 264 264 264 264 265 265 266 266 266 267 267 267 267 267 267 267 267 267 267 267 267 267 267 267 267 267 268 268 269 270 270 271 271 271 271 271 271 271 271 270 270 270 270 270 270 270 270 270 271 271 272 272 272 272 272 272 272 272 272 272 272 272
265 265 264 264 264 264 264 264 264 264 264 265 265 266 266 266 266 266 266 266 266 266 266 265 265 265 265 265 265 265 265 266 266 266 266 266 266 266 266 266 266 266 266 266 265 265 266 266 267 268 268 269 270 270 271 271 271 271 271 271 271 270 270 270 270 269 269 270 270 270 271 271 272 272 272 272 273 273 273 273 273 273 273 272 272 273
266 265 265 264 264 264 264 264 264 264 264 264 265 265 266 266 267 267 267 267 267 267 266 266 266 265 265 265 265 265 265 265 266 266 266 266 266 266 265 265 265 265 265 265 265 265 265 266 267 268 269 270 270 270 271 271 271 270 270 270 270 270 270 269 269 269 270 270 270 271 271 272 272 272 273 273 273 273 273 273 274 273 273 273 273 273
267 266 265 265 264 264 264 264 264 264 264 264 264 265 265 266 266 267 267 267 267 267 267 267 266 266 265 265 265 265 265 265 265 265 265 265 265 265 265 265 264 264 264 265 265 265 266 266 267 268 269 270 270 270 270 270 270 270 270 270 270 269 269 269 269 269 270 270 271 271 272 272 273 273 273 273 274 274 274 274 274 274 274 274 274 274
267 267 266 265 265 265 264 264 264 264 264 264 264 264 265 265 265 266 266 267 267 267 267 267 267 266 266 265 265 265 265 265 265 265 265 265 265 265 264 264 264 264 264 265 265 265 266 267 267 268 269 270 270 270 270 270 270 270 269 269 269 269 269 269 269 270 270 271 271 272 272 273 273 274 274 274 274 275 275 275 275 275 275 275 275 275
268 268 267 266 266 265 265 265 265 265 264 265 264 264 264 264 265 265 265 266 266 266 267 267 267 267 266 266 265 265 265 265 265 265 264 264 264 264 264 264 264 264 265 265 265 266 266 267 268 268 269 269 270 270 270 270 269 269 269 269 269 269 269 269 269 270 271 272 272 273 273 274 274 274 275 275 275 276 276 276 276 276 276 276 276 277
269 269 268 268 267 266 266 266 265 265 265 265 265 264 264 264 264 264 265 265 265 266 266 267 267 267 267 266 266 265 265 265 264 264 264 264 264 264 264 264 264 265 265 265 266 266 267 267 268 268 269 269 269 269 270 269 269 269 268 268 268 269 269 269 270 271 272 272 273 274 274 274 275 275 276 276 276 277 277 277 277 277 277 278 278 278
270 270 269 269 268 268 267 267 266 266 265 265 265 264 264 264 264 264 264 264 265 265 265 266 266 267 267 267 266 266 265 265 264 264 264 264 264 264 264 264 264 265 265 265 266 266 267 267 268 268 268 269 269 269 269 269 269 268 268 268 268 269 269 270 271 272 272 273 274 275 275 275 276 276 277 277 278 278 278 278 278 278 279 279 279 280
271 271 270 270 270 269 269 268 267 267 266 266 265 265 264 264 264 264 264 264 264 265 265 265 266 266 266 267 267 266 266 265 264 264 264 264 264 264 264 264 265 265 265 266 266 267 267 267 268 268 268 268 268 268 268 268 268 268 268 268 269 269 270 271 272 273 273 274 275 275 276 276 277 277 278 278 279 279 279 279 279 279 280 280 281 282
272 272 271 271 271 271 270 270 269 268 267 267 266 265 265 265 265 265 265 265 264 265 265 265 265 265 266 266 266 266 266 265 264 264 264 264 264 264 264 264 265 265 265 266 266 267 267 267 267 267 267 267 267 267 267 267 267 268 268 268 269 270 271 272 273 274 274 275 275 276 276 277 278 278 279 279 280 280 280 280 280 280 281 281 282 283
274 273 273 272 272 271 271 270 270 269 269 268 267 267 266 266 265 265 265 265 265 265 265 265 265 265 265 265 265 265 265 265 264 264 264 264 264 264 264 264 265 265 266 266 266 266 266 266 266 266 266 266 266 266 266 267 267 267 268 268 269 271 272 273 274 274 275 276 276 276 277 278 278 279 280 280 280 280 280 280 280 281 281 282 283 285
276 275 275 274 273 272 272 271 270 270 270 269 269 268 267 267 267 266 266 266 265 265 265 265 265 265 265 265 265 265 264 264 264 264 264 264 264 264 264 264 265 265 266 266 266 266 266 266 265 265 265 265 265 265 266 266 267 267 268 269 270 271 272 274 275 275 276 276 276 277 278 278 279 280 281 281 281 281 281 281 281 281 282 283 285 286
276 276 276 276 275 274 273 272 271 271 270 270 270 269 269 268 268 267 267 267 266 266 266 265 265 265 264 264 264 264 264 264 264 264 264 264 264 264 264 265 265 265 265 266 266 266 266 265 265 264 264 264 264 265 265 266 266 267 268 269 270 272 273 274 275 276 276 277 277 278 278 279 280 281 281 281 281 281 281 281 282 282 283 284 286 287
276 276 276 276 276 275 274 273 272 272 271 271 270 270 270 270 269 269 268 268 267 267 266 266 265 265 264 264 264 264 264 264 264 263 264 264 264 264 265 265 265 265 265 265 265 265 265 265 264 264 264 264 264 264 265 265 266 267 269 270 271 272 273 275 275 276 276 277 278 278 279 280 280 281 281 281 281 281 281 282 282 283 284 285 287 288
276 276 276 276 275 275 275 274 273 273 272 272 272 272 271 271 271 270 270 269 269 268 267 267 266 265 265 264 264 264 264 263 263 263 264 264 264 264 265 265 265 265 265 265 265 265 264 264 264 264 264 264 264 264 265 266 267 268 270 271 272 273 274 274 275 276 276 277 278 279 280 280 281 281 281 281 281 281 282 282 283 284 285 287 288 289
276 276 276 275 275 275 275 275 274 274 274 273 273 273 273 272 272 271 271 270 270 269 268 268 267 266 266 265 265 264 264 264 264 264 264 264 264 264 265 265 265 265 265 265 264 264 264 264 264 264 264 264 264 264 265 266 267 269 270 272 273 273 274 274 275 275 276 277 279 280 280 281 281 281 281 281 281 281 282 283 284 285 286 287 289 289
276 276 276 275 275 275 275 275 275 275 275 274 274 274 274 273 273 272 272 271 271 270 269 269 268 267 266 266 266 265 265 265 264 264 264 264 264 264 265 265 265 265 264 264 264 263 263 263 263 263 264 264 264 265 266 267 268 269 271 272 273 273 273 274 274 275 276 278 279 280 280 281 281 281 281 281 281 282 282 283 285 286 287 288 289 290
276 276 276 276 276 275 276 276 276 276 275 275 275 274 274 274 273 273 273 272 271 271 270 269 269 268 268 267 267 266 266 266 265 265 265 265 265 265 265 264 264 264 264 263 263 263 263 263 263 263 264 264 265 265 267 268 269 270 271 272 272 273 273 273 274 275 276 278 279 279 280 280 280 280 280 280 281 282 283 284 286 287 288 288 289 290
276 276 276 276 276 276 276 276 276 276 276 276 275 275 275 274 273 273 273 272 272 271 271 270 270 269 269 268 268 268 267 267 266 266 266 265 265 265 264 264 264 263 263 262 262 262 262 262 262 263 264 264 265 266 267 269 270 271 271 271 271 272 272 273 274 275 277 278 279 279 279 279 279 279 280 280 281 282 284 285 286 287 288 289 289 290
276 276 276 276 276 276 276 277 277 277 276 276 276 275 275 274 273 273 273 272 272 272 271 271 270 270 270 269 269 268 268 268 267 267 266 266 266 265 264 264 263 262 262 262 261 261 261 262 262 263 264 265 266 266 268 269 270 270 270 270 271 271 272 273 274 276 277 278 278 279 279 278 279 279 279 280 281 282 284 285 286 287 288 288 289 289
Height
10347 10346 10347 10347 10346 10345 10343 10342 10341 10340 10337 10336 10334 10334 10334 10335 10336 10337 10337 10338 10340 10341 10341 10341 10341 10341 10342 10342 10342 10343 10343 10343 10343 10343 10343 10343 10343 10343 10343 10342 10342 10342 10341 10340 10339 10339 10338 10338 10337 10337 10337 10336 10336 10336 10336 10336 10336 10336 10336 10336 10336 10337 10337 10337 10337 10337 10337 10337 10337 10337 10337 10337 10337 10337 10337 10337 10337 10337 10337 10336 10336 10337 10337 10338 10339 10339
10337 10337 10337 10337 10336 10336 10334 10332 10332 10331 10329 10327 10326 10326 10326 10327 10327 10327 10327 10329 10330 10331 10332 10332 10332 10332 10333 10333 10334 10334 10334 10334 10334 10334 10335 10335 10335 10335 10335 10335 10334 10334 10333 10332 10332 10331 10331 10330 10329 10329 10329 10328 10328 10328 10328 10328 10328 10328 10328 10328 10328 10328 10329 10329 10328 10328 10329 10329 10329 10329 10329 10329 10329 10329 10329 10329 10329 10329 10328 10328 10328 10328 10329 10329 10331 10331
10326 10326 10326 10326 10326 10326 10324 10322 10322 10322 10321 10319 10318 10317 10318 10318 10318 10317 10318 10319 10320 10322 10323 10324 10324 10324 10324 10324 10324 10325 10326 10326 10326 10326 10326 10326 10327 10327 10327 10327 10326 10326 10326 10324 10324 10323 10322 10322 10321 10321 10321 10320 10320 10320 10320 10320 10320 10320 10320 10320 10320 10320 10320 10320 10320 10320 10320 10321 10321 10321 10321 10321 10321 10321 10321 10321 10321 10321 10320 10320 10320 10320 10321 10321 10322 10323
10316 10316 10315 10315 10316 10316 10314 10314 10313 10312 10312 10311 10310 10309 10309 10309 10309 10309 10309 10310 10311 10312 10313 10314 10314 10315 10315 10315 10316 10316 10316 10317 10317 10317 10318 10318 10318 10319 10319 10319 10318 10318 10317 10317 10316 10315 10314 10314 10313 10312 10312 10312 10312 10312 10312 10312 10312 10312 10312 10312 10312 10312 10312 10312 10312 10312 10312 10312 10312 10312 10313 10313 10313 10313 10312 10312 10312 10312 10312 10312 10312 10312 10312 10313 10314 10314
10304 10305 10304 10305 10306 10306 10304 10304 10304 10303 10302 10302 10301 10301 10301 10300 10300 10299 10300 10301 10302 10303 10304 10304 10305 10306 10306 10306 10306 10307 10307 10308 10308 10309 10309 10310 10310 10310 10310 10310 10310 10309 10309 10309 10307 10307 10306 10306 10305 10304 10304 10304 10304 10304 10304 10304 10304 10304 10304 10304 10304 10304 10303 10303 10304 10304 10304 10304 10304 10304 10305 10305 10305 10305 10305 10304 10304 10304 10304 10303 10304 10304 10304 10304 10305 10306
10292 10293 10294 10295 10295 10295 10294 10294 10294 10294 10293 10292 10292 10292 10291 10291 10291 10291 10291 10292 10292 10294 10294 10295 10296 10297 10297 10297 10297 10298 10298 10299 10299 10300 10301 10301 10301 10301 10301 10301 10301 10301 10301 10300 10299 10299 10297 10297 10296 10296 10296 10296 10296 10296 10296 10296 10296 10296 10296 10296 10296 10295 10295 10295 10295 10296 10296 10296 10296 10296 10297 10297 10297 10297 10297 10297 10296 10296 10296 10295 10295 10296 10296 10296 10297 10297
10281 10282 10283 10284 10284 10284 10284 10284 10284 10284 10284 10283 10283 10282 10282 10282 10281 10281 10282 10282 10283 10284 10286 10286 10287 10288 10289 10289 10289 10289 10289 10289 10290 10291 10292 10292 10292 10292 10292 10292 10292 10292 10292 10291 10291 10290 10289 10288 10287 10287 10287 10287 10287 10287 10287 10287 10287 10287 10287 10287 10287 10287 10287 10287 10287 10287 10287 10287 10287 10288 10289 10289 10289 10289 10289 10289 10288 10287 10287 10287 10287 10287 10287 10287 10288 10289
10270 10271 10272 10273 10274 10274 10274 10274 10274 10274 10274 10274 10274 10273 10272 10272 10271 10272 10272 10273 10274 10276 10276 10277 10278 10279 10280 10280 10281 10281 10281 10281 10281 10282 10282 10283 10283 10284 10284 10283 10283 10283 10282 10282 10282 10281 10281 10280 10279 10279 10279 10279 10279 10279 10279 10279 10279 10279 10279 10279 10279 10279 10279 10279 10279 10279 10279 10279 10279 10280 10281 10281 10281 10281 10281 10281 10280 10279 10279 10279 10279 10279 10279 10279 10280 10281
10259 10260 10261 10262 10263 10263 10263 10262 10263 10264 10265 10265 10265 10264 10264 10262 10261 10261 10262 10264 10265 10266 10267 10269 10269 10270 10271 10272 10272 10272 10272 10272 10272 10272 10273 10274 10274 10274 10274 10274 10274 10274 10274 10273 10273 10272 10272 10271 10271 10271 10270 10270 10271 10271 10271 10271 10270 10270 10270 10271 10271 10271 10271 10271 10271 10271 10271 10271 10271 10272 10272 10272 10272 10272 10272 10272 10272 10271 10271 10271 10271 10271 10271 10271 10271 10272
10249 10249 10250 10251 10252 10253 10253 10252 10252 10253 10255 10256 10256 10255 10254 10253 10252 10251 10252 10254 10255 10256 10258 10260 10261 10262 10262 10263 10263 10263 10263 10263 10264 10264 10264 10264 10264 10264 10264 10265 10265 10265 10265 10264 10264 10264 10263 10262 10262 10262 10262 10262 10262 10262 10262 10262 10262 10261 10261 10262 10262 10262 10262 10262 10262 10262 10262 10262 10262 10263 10264 10264 10264 10264 10264 10264 10264 10263 10263 10262 10262 10262 10262 10262 10262 10263
10238 10239 10240 10241 10241 10242 10243 10242 10242 10242 10244 10246 10246 10246 10245 10243 10242 10242 10244 10244 10246 10247 10249 10251 10252 10254 10254 10254 10254 10254 10255 10255 10254 10255 10255 10255 10256 10256 10256 10256 10256 10256 10256 10256 10255 10255 10254 10254 10254 10254 10253 10253 10252 10253 10253 10253 10253 10252 10253 10253 10254 10254 10254 10254 10254 10254 10254 10254 10254 10254 10255 10255 10255 10256 10256 10256 10255 10255 10254 10254 10254 10254 10254 10254 10254 10255
10227 10228 10229 10230 10231 10232 10232 10232 10232 10233 10234 10236 10236 10235 10234 10232 10233 10234 10236 10236 10237 10237 10239 10241 10243 10245 10246 10246 10245 10245 10246 10246 10246 10246 10246 10246 10246 10246 10246 10246 10247 10247 10247 10247 10247 10247 10246 10246 10245 10245 10244 10244 10244 10244 10244 10244 10244 10244 10244 10245 10246 10246 10246 10246 10245 10245 10245 10245 10246 10246 10246 10246 10247 10247 10247 10247 10247 10247 10246 10246 10246 10246 10246 10246 10246 10246
10217 10218 10219 10220 10221 10221 10222 10222 10223 10224 10224 10225 10225 10224 10222 10222 10224 10226 10227 10228 10228 10229 10230 10232 10234 10236 10237 10237 10237 10237 10237 10237 10237 10237 10237 10237 10237 10237 10237 10237 10238 10238 10239 10239 10239 10238 10238 10237 10237 10236 10236 10236 10235 10235 10236 10236 10236 10236 10236 10237 10237 10237 10237 10237 10236 10236 10236 10237 10237 10237 10237 10238 10238 10238 10238 10238 10238 10238 10238 10238 10237 10237 10237 10237 10237 10237
10206 10207 10209 10209 10210 10211 10212 10212 10213 10213 10213 10214 10214 10214 10213 10213 10215 10217 10219 10219 10219 10221 10222 10224 10225 10226 10227 10227 10227 10227 10228 10228 10228 10229 10229 10229 10228 10229 10229 10229 10229 10230 10231 10231 10230 10229 10229 10229 10228 10227 10227 10226 10226 10226 10227 10227 10227 10228 10228 10229 10229 10229 10228 10228 10228 10227 10228 10228 10229 10229 10229 10229 10229 10230 10230 10230 10230 10230 10230 10229 10229 10229 10229 10229 10229 10229
10196 10197 10198 10199 10200 10201 10202 10202 10203 10203 10203 10204 10204 10204 10204 10205 10206 10208 10209 10210 10211 10212 10214 10215 10216 10217 10217 10218 10219 10219 10219 10219 10219 10220 10221 10220 10220 10221 10221 10221 10221 10221 10222 10222 10221 10221 10220 10220 10219 10218 10217 10217 10217 10217 10218 10219 10219 10220 10220 10220 10220 10220 10219 10219 10219 10219 10219 10219 10220 10221 10221 10221 10221 10221 10222 10221 10221 10222 10221 10221 10221 10221 10221 10221 10221 10221
10186 10187 10188 10189 10190 10191 10191 10192 10192 10193 10192 10194 10194 10195 10195 10196 10197 10199 10201 10202 10202 10204 10206 10206 10207 10207 10208 10209 10209 10211 10211 10211 10211 10212 10212 10212 10211 10212 10214 10214 10213 10213 10214 10214 10213 10212 10211 10211 10210 10209 10209 10209 10209 10209 10210 10211 10211 10212 10212 10212 10212 10211 10211 10211 10211 10211 10211 10211 10211 10212 10212 10212 10212 10213 10213 10213 10213 10213 10213 10213 10213 10212 10212 10212 10212 10212
10176 10177 10178 10179 10180 10181 10181 10182 10182 10183 10183 10184 10184 10185 10186 10186 10188 10191 10193 10194 10194 10196 10197 10197 10199 10199 10199 10199 10200 10202 10203 10203 10203 10203 10204 10204 10202 10203 10205 10206 10206 10204 10205 10205 10204 10203 10202 10202 10201 10201 10201 10201 10201 10201 10202 10202 10203 10204 10204 10204 10203 10203 10202 10202 10202 10202 10202 10202 10203 10203 10204 10204 10204 10204 10205 10205 10206 10205 10205 10205 10205 10204 10204 10204 10204 10204
10166 10167 10168 10169 10170 10170 10171 10172 10172 10173 10173 10174 10174 10176 10177 10178 10180 10182 10184 10185 10186 10187 10187 10189 10190 10191 10191 10191 10190 10191 10194 10196 10196 10196 10196 10196 10194 10194 10196 10197 10197 10196 10196 10196 10195 10194 10193 10192 10192 10192 10192 10192 10193 10194 10194 10194 10195 10195 10195 10195 10195 10194 10194 10193 10193 10193 10194 10194 10194 10195 10195 10196 10196 10196 10197 10197 10197 10197 10197 10197 10197 10196 10196 10196 10196 10196
10156 10157 10159 10159 10160 10161 10161 10162 10163 10163 10164 10164 10166 10167 10168 10170 10172 10174 10176 10176 10177 10178 10179 10181 10181 10182 10182 10182 10181 10182 10186 10188 10188 10187 10188 10187 10186 10185 10187 10189 10189 10188 10187 10187 10186 10185 10185 10184 10184 10184 10185 10185 10185 10186 10186 10186 10187 10187 10187 10187 10186 10186 10185 10185 10185 10185 10186 10186 10186 10186 10187 10187 10188 10189 10189 10189 10189 10189 10189 10189 10189 10188 10188 10188 10188 10188
10147 10148 10149 10150 10151 10151 10152 10152 10153 10154 10154 10156 10157 10159 10160 10161 10164 10166 10166 10167 10169 10170 10171 10173 10173 10173 10173 10173 10173 10174 10177 10179 10180 10179 10179 10178 10177 10176 10178 10179 10180 10179 10179 10177 10177 10177 10177 10176 10176 10176 10177 10177 10177 10177 10178 10178 10179 10179 10179 10178 10177 10177 10176 10176 10176 10177 10177 10177 10178 10178 10179 10179 10180 10181 10181 10181 10182 10181 10181 10181 10181 10181 10180 10180 10180 10180
10139 10139 10140 10141 10142 10142 10142 10144 10144 10146 10146 10147 10149 10151 10151 10153 10155 10156 10157 10159 10161 10162 10164 10164 10164 10164 10165 10166 10165 10165 10167 10170 10171 10170 10170 10170 10169 10168 10169 10171 10171 10171 10170 10169 10168 10168 10169 10168 10168 10169 10169 10169 10169 10169 10170 10170 10171 10171 10170 10169 10169 10169 10168 10168 10168 10168 10169 10169 10170 10171 10171 10172 10172 10173 10173 10174 10174 10174 10173 10173 10172 10172 10172 10172 10172 10172
10131 10131 10131 10132 10134 10134 10134 10135 10136 10137 10138 10139 10141 10142 10142 10145 10146 10148 10149 10152 10153 10154 10155 10156 10156 10156 10157 10157 10157 10157 10159 10161 10161 10161 10161 10162 10161 10159 10161 10162 10162 10162 10161 10161 10160 10160 10161 10161 10161 10161 10161 10161 10161 10161 10162 10162 10162 10162 10162 10161 10161 10160 10159 10159 10160 10161 10161 10161 10162 10162 10163 10164 10164 10165 10166 10166 10166 10166 10166 10165 10165 10164 10164 10164 10164 10164
10122 10122 10124 10124 10125 10126 10126 10127 10127 10129 10130 10131 10132 10133 10134 10136 10138 10140 10142 10144 10146 10146 10147 10147 10147 10149 10149 10149 10148 10149 10150 10151 10152 10152 10153 10153 10151 10150 10152 10154 10154 10154 10153 10152 10152 10152 10152 10152 10152 10152 10153 10153 10153 10153 10153 10154 10154 10153 10153 10152 10152 10151 10151 10152 10152 10152 10153 10154 10154 10155 10156 10156 10156 10157 10157 10157 10158 10158 10157 10157 10157 10157 10157 10157 10157 10157
10114 10115 10116 10116 10117 10118 10119 10119 10120 10121 10122 10123 10124 10124 10126 10128 10130 10132 10134 10136 10137 10138 10139 10139 10140 10140 10140 10140 10140 10140 10141 10142 10143 10144 10145 10144 10143 10142 10143 10145 10146 10145 10144 10144 10144 10144 10144 10144 10145 10145 10145 10145 10145 10145 10145 10145 10145 10145 10144 10144 10144 10143 10143 10144 10144 10145 10146 10146 10147 10147 10147 10148 10149 10149 10149 10150 10150 10150 10150 10150 10150 10150 10149 10149 10150 10149
10108 10107 10108 10108 10109 10110 10111 10112 10112 10113 10114 10115 10116 10116 10117 10119 10121 10124 10126 10128 10129 10129 10130 10131 10131 10131 10131 10132 10132 10132 10132 10134 10136 10136 10136 10136 10135 10135 10136 10137 10137 10137 10135 10135 10136 10137 10137 10137 10137 10137 10137 10137 10136 10136 10136 10136 10136 10136 10136 10136 10136 10136 10136 10136 10137 10137 10138 10139 10139 10139 10140 10141 10141 10141 10142 10142 10142 10142 10142 10142 10142 10142 10142 10142 10142 10142
10102 10102 10101 10101 10101 10102 10103 10104 10105 10106 10107 10107 10107 10108 10109 10111 10113 10116 10118 10120 10121 10121 10121 10122 10122 10122 10122 10124 10124 10123 10123 10125 10127 10128 10129 10128 10127 10127 10127 10128 10129 10128 10127 10127 10128 10129 10129 10129 10129 10129 10129 10128 10128 10128 10128 10128 10128 10128 10128 10127 10127 10128 10129 10129 10130 10131 10131 10131 10131 10132 10132 10132 10133 10133 10134 10134 10134 10135 10135 10135 10135 10135 10135 10135 10135 10135
10096 10096 10095 10094 10094 10094 10095 10096 10097 10098 10099 10100 10100 10101 10102 10103 10106 10107 10109 10111 10112 10113 10114 10114 10114 10114 10115 10116 10116 10115 10116 10117 10119 10120 10121 10121 10121 10119 10119 10119 10121 10120 10119 10120 10121 10122 10122 10122 10121 10121 10120 10119 10119 10119 10120 10120 10120 10120 10120 10121 10121 10121 10121 10122 10122 10123 10123 10124 10124 10124 10124 10125 10125 10126 10126 10127 10127 10127 10127 10127 10127 10127 10127 10127 10127 10127
10089 10089 10089 10089 10088 10087 10087 10087 10089 10090 10091 10092 10093 10094 10094 10096 10098 10099 10099 10101 10103 10105 10106 10106 10107 10107 10107 10107 10107 10107 10109 10110 10111 10111 10113 10114 10113 10112 10111 10112 10112 10112 10112 10112 10113 10114 10115 10114 10113 10112 10111 10111 10111 10111 10111 10112 10112 10112 10113 10113 10114 10114 10114 10114 10115 10115 10116 10116 10116 10116 10117 10117 10118 10118 10119 10119 10120 10120 10120 10120 10120 10120 10120 10120 10119 10119
10081 10082 10082 10082 10082 10082 10081 10081 10081 10082 10083 10084 10085 10086 10087 10089 10090 10090 10091 10093 10096 10097 10098 10099 10099 10100 10099 10100 10100 10101 10102 10102 10102 10103 10106 10107 10106 10104 10104 10104 10105 10105 10106 10106 10106 10106 10107 10106 10105 10104 10103 10102 10102 10103 10104 10104 10105 10106 10106 10106 10107 10107 10107 10107 10107 10107 10108 10108 10109 10109 10109 10110 10111 10111 10112 10112 10112 10112 10112 10112 10112 10112 10112 10112 10112 10111
10074 10074 10075 10075 10076 10076 10076 10076 10076 10076 10076 10076 10077 10079 10080 10081 10082 10082 10083 10086 10087 10089 10090 10091 10092 10093 10093 10094 10094 10094 10094 10094 10094 10096 10098 10099 10098 10097 10097 10098 10097 10097 10099 10099 10099 10098 10097 10097 10097 10096 10095 10095 10095 10096 10096 10097 10098 10099 10099 10099 10099 10099 10099 10099 10100 10100 10100 10101 10101 10102 10102 10102 10104 10104 10105 10105 10106 10106 10105 10105 10105 10105 10105 10104 10104 10103
10067 10068 10068 10069 10069 10069 10070 10071 10071 10070 10070 10070 10070 10071 10072 10074 10074 10076 10076 10078 10080 10081 10082 10084 10085 10086 10087 10087 10087 10087 10086 10086 10086 10089 10091 10091 10090 10089 10091 10091 10090 10089 10092 10092 10092 10091 10089 10088 10088 10088 10088 10087 10088 10089 10089 10091 10091 10092 10092 10092 10092 10092 10092 10092 10092 10092 10093 10093 10094 10094 10095 10096 10097 10097 10098 10098 10098 10098 10097 10097 10097 10097 10097 10097 10096 10095
10062 10062 10062 10062 10063 10063 10064 10064 10064 10064 10064 10064 10064 10064 10065 10066 10067 10068 10069 10070 10072 10074 10075 10076 10077 10079 10080 10081 10081 10080 10079 10079 10079 10081 10083 10084 10082 10082 10084 10084 10082 10082 10084 10085 10084 10083 10082 10081 10080 10081 10081 10081 10082 10082 10083 10084 10084 10085 10085 10085 10084 10084 10084 10084 10085 10085 10086 10086 10087 10087 10088 10089 10090 10091 10091 10091 10091 10091 10090 10090 10089 10089 10089 10089 10088 10087
10056 10056 10056 10056 10057 10057 10057 10058 10059 10059 10059 10059 10059 10059 10059 10059 10060 10061 10062 10063 10064 10066 10067 10069 10070 10071 10072 10074 10074 10074 10073 10072 10072 10073 10075 10076 10076 10076 10076 10077 10076 10075 10076 10077 10077 10076 10076 10074 10073 10074 10074 10075 10076 10076 10077 10077 10077 10077 10077 10077 10077 10077 10077 10077 10077 10078 10079 10079 10080 10081 10082 10082 10084 10084 10084 10084 10084 10084 10083 10082 10081 10081 10081 10080 10080 10080
10049 10050 10050 10051 10051 10051 10052 10052 10052 10053 10054 10054 10054 10054 10054 10054 10054 10055 10055 10056 10057 10058 10059 10061 10062 10064 10065 10066 10067 10067 10066 10066 10066 10066 10067 10068 10068 10068 10069 10069 10069 10068 10069 10069 10069 10069 10069 10068 10068 10068 10067 10068 10069 10070 10070 10070 10070 10071 10071 10071 10070 10069 10069 10070 10071 10071 10072 10072 10074 10074 10075 10076 10077 10077 10078 10077 10077 10076 10076 10075 10074 10073 10072 10072 10072 10072
10043 10043 10044 10044 10045 10046 10046 10047 10047 10047 10048 10048 10049 10049 10048 10048 10049 10049 10049 10049 10050 10051 10051 10052 10054 10056 10057 10059 10060 10060 10059 10059 10059 10059 10061 10061 10061 10061 10061 10061 10061 10061 10062 10062 10062 10062 10063 10062 10062 10063 10062 10062 10062 10062 10063 10063 10063 10064 10064 10064 10063 10062 10062 10062 10063 10064 10065 10066 10067 10068 10069 10070 10071 10071 10071 10071 10070 10069 10069 10067 10066 10065 10064 10064 10064 10064
10036 10037 10037 10039 10039 10040 10041 10041 10041 10042 10042 10043 10043 10044 10044 10043 10043 10043 10044 10044 10044 10044 10044 10045 10046 10048 10049 10051 10052 10052 10052 10052 10052 10053 10054 10054 10054 10054 10054 10053 10054 10054 10055 10055 10056 10056 10057 10057 10057 10057 10057 10057 10056 10056 10056 10056 10057 10057 10056 10056 10056 10056 10055 10056 10056 10057 10058 10059 10061 10062 10062 10064 10064 10064 10064 10064 10063 10062 10061 10060 10058 10057 10056 10056 10056 10057
10031 10031 10031 10032 10034 10034 10035 10036 10036 10037 10037 10037 10038 10038 10038 10038 10037 10037 10037 10038 10038 10039 10039 10039 10039 10041 10042 10044 10045 10046 10046 10046 10046 10047 10047 10047 10047 10047 10047 10046 10047 10048 10049 10048 10049 10050 10051 10051 10051 10052 10051 10051 10049 10049 10049 10049 10050 10050 10049 10049 10049 10049 10049 10049 10050 10051 10052 10053 10054 10056 10056 10057 10057 10057 10057 10057 10056 10055 10054 10052 10051 10049 10048 10048 10049 10049
10024 10025 10026 10026 10027 10029 10029 10030 10031 10031 10032 10032 10032 10032 10032 10032 10032 10032 10032 10032 10032 10033 10034 10033 10033 10034 10034 10036 10037 10039 10039 10039 10040 10040 10040 10040 10041 10041 10040 10040 10040 10041 10042 10042 10043 10044 10046 10046 10046 10046 10045 10044 10044 10043 10042 10042 10042 10042 10042 10042 10042 10042 10042 10042 10044 10045 10046 10047 10048 10049 10050 10050 10051 10051 10050 10050 10049 10047 10046 10044 10042 10041 10041 10041 10041 10041
10019 10019 10020 10021 10021 10022 10024 10024 10025 10026 10026 10026 10026 10026 10026 10026 10026 10027 10027 10027 10027 10028 10028 10028 10028 10028 10028 10029 10031 10032 10032 10033 10033 10033 10034 10034 10034 10034 10034 10034 10034 10034 10035 10036 10037 10038 10039 10040 10040 10039 10039 10038 10037 10037 10036 10036 10036 10036 10036 10036 10036 10036 10036 10036 10037 10039 10040 10041 10042 10042 10043 10044 10044 10044 10043 10043 10042 10041 10038 10036 10035 10034 10033 10033 10033 10033
10014 10014 10014 10015 10016 10017 10017 10018 10019 10020 10020 10020 10020 10021 10021 10021 10021 10021 10022 10022 10022 10023 10023 10024 10024 10023 10023 10023 10024 10024 10026 10026 10026 10027 10027 10027 10027 10027 10027 10027 10027 10028 10029 10031 10032 10032 10034 10034 10034 10034 10033 10032 10031 10031 10031 10030 10029 10029 10029 10029 10029 10029 10029 10031 10032 10032 10034 10035 10036 10036 10036 10037 10037 10037 10037 10036 10035 10033 10031 10029 10027 10027 10026 10026 10026 10026
10009 10009 10009 10010 10011 10012 10012 10012 10013 10013 10014 10014 10014 10014 10014 10015 10016 10016 10016 10017 10017 10017 10018 10019 10019 10019 10019 10018 10018 10018 10019 10019 10019 10020 10020 10021 10021 10021 10021 10022 10022 10023 10024 10025 10026 10027 10028 10028 10028 10027 10027 10027 10026 10025 10024 10024 10023 10022 10022 10022 10022 10022 10024 10025 10026 10027 10028 10029 10029 10029 10030 10030 10031 10031 10031 10029 10028 10026 10024 10022 10021 10020 10019 10019 10019 10019
10004 10004 10004 10005 10006 10006 10007 10007 10007 10007 10007 10007 10007 10008 10009 10009 10010 10011 10011 10011 10012 10012 10012 10014 10014 10014 10014 10014 10013 10012 10012 10012 10013 10013 10014 10014 10014 10015 10016 10016 10017 10017 10019 10020 10021 10021 10022 10022 10022 10022 10022 10021 10021 10020 10019 10017 10017 10016 10016 10016 10017 10017 10018 10019 10019 10021 10022 10022 10023 10024 10024 10024 10024 10024 10024 10023 10021 10019 10017 10016 10014 10013 10012 10012 10012 10012
9999 9999 9999 9999 10000 10001 10001 10001 10002 10001 10001 10001 10001 10002 10002 10003 10004 10005 10006 10006 10006 10007 10007 10008 10008 10009 10009 10008 10007 10007 10006 10006 10007 10007 10007 10008 10009 10009 10010 10011 10012 10012 10014 10014 10015 10016 10016 10017 10017 10017 10016 10016 10016 10015 10013 10012 10011 10010 10011 10011 10012 10012 10012 10012 10014 10015 10016 10016 10017 10017 10017 10018 10019 10019 10018 10017 10014 10012 10011 10009 10008 10007 10006 10006 10006 10006
9996 9994 9994 9994 9994 9994 9995 9996 9996 9996 9996 9996 9996 9996 9996 9997 9998 9999 10000 10000 10001 10001 10002 10002 10002 10003 10002 10002 10001 10001 10001 10001 10001 10001 10002 10002 10003 10004 10005 10006 10007 10007 10009 10009 10009 10010 10011 10011 10011 10011 10011 10011 10011 10009 10008 10006 10005 10004 10005 10006 10007 10008 10008 10007 10008 10009 10009 10009 10011 10011 10012 10012 10013 10013 10012 10011 10008 10006 10004 10002 10001 10001 10001 10001 10001 10000
9992 9991 9989 9989 9989 9989 9989 9989 9990 9991 9991 9991 9990 9990 9991 9991 9992 9993 9994 9994 9994 9995 9996 9996 9997 9997 9996 9996 9996 9995 9995 9995 9996 9996 9996 9997 9997 9998 9999 10001 10001 10002 10003 10004 10004 10005 10005 10005 10005 10005 10006 10006 10005 10004 10002 10001 9999 9999 10000 10001 10002 10004 10004 10003 10003 10002 10002 10003 10004 10006 10006 10007 10007 10007 10006 10004 10002 10000 9998 9996 9995 9994 9994 9994 9994 9994
9987 9987 9986 9984 9984 9984 9984 9984 9985 9985 9986 9985 9985 9985 9986 9986 9987 9987 9988 9989 9989 9989 9989 9991 9991 9991 9989 9989 9989 9989 9989 9990 9990 9991 9991 9991 9992 9993 9994 9995 9996 9997 9998 9999 9999 9999 9999 9999 9999 9999 9999 9999 9999 9997 9996 9995 9994 9994 9995 9997 9998 9999 9999 9998 9997 9997 9997 9998 9999 9999 10001 10001 10002 10001 10000 9998 9996 9994 9992 9991 9989 9989 9988 9988 9989 9988
9984 9982 9981 9981 9980 9979 9979 9979 9980 9980 9980 9980 9981 9981 9981 9981 9981 9982 9982 9983 9983 9984 9984 9984 9984 9984 9984 9984 9984 9984 9984 9984 9985 9986 9986 9987 9987 9988 9989 9990 9991 9992 9992 9993 9994 9994 9994 9994 9994 9994 9994 9993 9992 9992 9991 9990 9990 9991 9991 9992 9993 9994 9994 9993 9992 9992 9992 9993 9994 9994 9995 9996 9996 9995 9994 9992 9991 9989 9987 9985 9984 9983 9982 9982 9982 9982
9979 9978 9977 9976 9976 9975 9975 9975 9975 9975 9976 9976 9976 9976 9976 9976 9976 9976 9977 9977 9977 9978 9978 9978 9978 9978 9978 9978 9978 9979 9979 9979 9979 9980 9981 9982 9982 9984 9984 9986 9986 9987 9987 9988 9989 9989 9989 9988 9988 9988 9988 9987 9987 9986 9986 9986 9986 9986 9987 9987 9988 9988 9987 9987 9987 9987 9988 9989 9989 9989 9990 9990 9989 9989 9988 9987 9986 9984 9982 9980 9978 9977 9977 9977 9977 9977
9975 9974 9973 9972 9971 9971 9971 9971 9971 9971 9971 9971 9971 9971 9971 9971 9971 9971 9971 9972 9972 9972 9972 9972 9972 9972 9972 9972 9972 9973 9974 9974 9974 9975 9976 9977 9977 9979 9979 9981 9981 9982 9982 9983 9983 9983 9983 9983 9983 9982 9982 9982 9981 9981 9981 9981 9981 9982 9982 9983 9983 9982 9982 9982 9982 9982 9983 9984 9984 9985 9985 9984 9984 9983 9983 9982 9981 9979 9977 9975 9973 9972 9971 9972 9972 9972
9971 9969 9969 9968 9967 9966 9966 9966 9966 9966 9966 9966 9966 9966 9966 9966 9967 9966 9966 9967 9967 9967 9967 9967 9967 9967 9967 9967 9967 9967 9968 9969 9969 9970 9971 9971 9972 9974 9974 9976 9976 9977 9977 9977 9978 9978 9978 9978 9978 9977 9977 9977 9976 9976 9976 9977 9977 9977 9978 9978 9977 9977 9977 9977 9977 9978 9979 9979 9980 9980 9979 9979 9978 9978 9977 9977 9976 9974 9972 9971 9969 9967 9966 9966 9967 9967
9966 9966 9964 9964 9963 9962 9962 9962 9962 9962 9962 9962 9962 9962 9962 9962 9962 9962 9962 9962 9962 9962 9962 9962 9962 9962 9961 9961 9962 9962 9962 9963 9964 9964 9965 9966 9967 9969 9969 9970 9971 9972 9972 9972 9973 9973 9973 9973 9973 9972 9972 9972 9971 9972 9972 9972 9973 9973 9972 9972 9972 9972 9972 9972 9973 9974 9974 9975 9975 9975 9974 9974 9973 9972 9972 9972 9971 9970 9969 9967 9965 9963 9962 9962 9962 9962